CW1733 Weather Reports


time (UTC)temp
C
wind
direction
speed
KPH
gust
KPH
rain 1hr
cm
rain 24hr
cm
rain mn
cm
humidity
%
barometer
mb
20260503034019 26 0.0 0.0 0.00 0.00 0.00 85 1015.9
20260503033033 26 0.0 1.6 0.00 0.00 0.00 85 1015.7
20260503032047 26 0.0 3.2 0.00 0.00 0.00 84 1015.5
20260503031022 26 323 0.0 3.2 0.00 0.00 0.00 84 1015.7
20260503030016 26 4 0.0 3.2 0.00 0.00 0.00 83 1015.6
20260503025051 27 357 0.0 3.2 0.00 0.00 0.00 82 1015.6
20260503024025 27 316 0.0 3.2 0.00 0.00 0.00 81 1015.5
20260503023038 27 354 1.6 4.8 0.00 0.00 0.00 80 1015.6
20260503022033 27 342 1.6 4.8 0.00 0.00 0.00 79 1015.4
20260503021026 27 335 1.6 6.4 0.00 0.00 0.00 78 1015.2
20260503020040 27 333 1.6 4.8 0.00 0.00 0.00 76 1015.3
20260503015034 27 345 1.6 4.8 0.00 0.00 0.00 75 1015.4
20260503014028 27 356 1.6 4.8 0.00 0.00 0.00 74 1015.3
20260503013021 28 352 1.6 6.4 0.00 0.00 0.00 73 1015.2
20260503012035 28 354 1.6 3.2 0.00 0.00 0.00 71 1015.1
20260503011029 28 349 1.6 6.4 0.00 0.00 0.00 70 1014.9
20260503010022 28 348 1.6 3.2 0.00 0.00 0.00 68 1014.7
20260503005016 28 352 1.6 4.8 0.00 0.00 0.00 66 1014.5
20260503004030 28 1 1.6 6.4 0.00 0.00 0.00 65 1014.5
20260503003024 29 353 1.6 6.4 0.00 0.00 0.00 63 1014.2
20260503002018 29 346 3.2 6.4 0.00 0.00 0.00 61 1014.2
20260503001031 30 333 1.6 4.8 0.00 0.00 0.00 58 1014.0
20260503000024 30 325 1.6 8.0 0.00 0.00 0.00 55 1013.9
20260502235016 30 190 1.6 6.4 0.00 0.00 0.00 58 1013.7
20260502234030 30 357 0.0 4.8 0.00 0.00 0.00 57 1013.5
20260502233023 31 177 4.8 9.7 0.00 0.00 0.00 56 1013.3
20260502232016 31 183 1.6 6.4 0.00 0.00 0.00 54 1013.0
20260502231029 32 179 3.2 8.0 0.00 0.00 0.00 52 1012.8
20260502230021 32 189 3.2 6.4 0.00 0.00 0.00 51 1012.6
20260502225032 33 198 3.2 6.4 0.00 0.00 0.00 50 1012.5
20260502224105 34 193 3.2 8.0 0.00 0.00 0.00 46 1012.5
20260502223018 34 190 4.8 14.5 0.00 0.00 0.00 49 1012.4
20260502222029 35 295 1.6 4.8 0.00 0.00 0.00 44 1012.5
20260502221022 35 209 3.2 6.4 0.00 0.00 0.00 49 1012.5
20260502220113 34 206 3.2 8.0 0.00 0.00 0.00 50 1012.4
20260502215026 34 190 3.2 12.9 0.00 0.00 0.00 50 1012.3
20260502214017 35 195 3.2 9.7 0.00 0.00 0.00 48 1012.3
20260502213032 35 221 3.2 8.0 0.00 0.00 0.00 47 1012.0
20260502212024 35 227 1.6 6.4 0.00 0.00 0.00 44 1011.9
20260502211036 36 312 3.2 8.0 0.00 0.00 0.00 41 1012.0
20260502210026 36 193 3.2 9.7 0.00 0.00 0.00 41 1011.8
20260502205018 35 199 3.2 8.0 0.00 0.00 0.00 41 1011.8
20260502204032 35 189 3.2 9.7 0.00 0.00 0.00 41 1011.8
20260502203024 35 200 3.2 9.7 0.00 0.00 0.00 41 1012.0
20260502202017 35 195 4.8 12.9 0.00 0.00 0.00 42 1012.1
20260502201030 35 191 3.2 11.3 0.00 0.00 0.00 42 1012.2
20260502200022 35 227 1.6 8.0 0.00 0.00 0.00 43 1012.5
20260502195034 35 207 3.2 9.7 0.00 0.00 0.00 44 1012.5
20260502194025 35 266 3.2 8.0 0.00 0.00 0.00 45 1012.6
20260502193016 35 212 3.2 6.4 0.00 0.00 0.00 45 1012.8
20260502192028 35 212 4.8 11.3 0.00 0.00 0.00 47 1012.8
20260502191019 34 177 4.8 12.9 0.00 0.00 0.00 47 1013.0
20260502190029 34 185 4.8 9.7 0.00 0.00 0.00 50 1012.9
20260502185022 33 172 4.8 14.5 0.00 0.00 0.00 51 1013.0
20260502184035 34 186 3.2 11.3 0.00 0.00 0.00 50 1013.0
20260502183025 33 189 3.2 8.0 0.00 0.00 0.00 54 1013.1
20260502182035 33 186 4.8 8.0 0.00 0.00 0.00 54 1013.3
20260502181025 33 186 3.2 11.3 0.00 0.00 0.00 55 1013.2
20260502164018 32 184 6.4 14.5 0.00 0.00 0.00 65 1013.7
20260502163029 32 172 6.4 16.1 0.00 0.00 0.00 66 1013.9
20260502162019 32 189 3.2 11.3 0.00 0.00 0.00 66 1013.8
20260502161030 32 183 6.4 17.7 0.00 0.00 0.00 66 1014.0
20260502152023 31 185 4.8 17.7 0.00 0.00 0.00 74 1014.1
20260502151029 30 175 8.0 14.5 0.00 0.00 0.00 74 1014.1
20260502123027 26 189 3.2 6.4 0.00 0.00 0.00 93 1013.8
20260502122035 26 181 0.0 4.8 0.00 0.00 0.00 95 1013.8
20260502121048 25 155 0.0 3.2 0.00 0.00 0.00 96 1013.7
20260502115053 25 0.0 3.2 0.00 0.00 0.00 99 1013.5
20260502114027 24 0.0 1.6 0.00 0.00 0.00 99 1013.6
20260502113021 24 0.0 0.0 0.00 0.00 0.00 99 1013.5
20260502112035 24 0.0 1.6 0.00 0.00 0.00 99 1013.6
20260502111028 23 148 0.0 3.2 0.00 0.00 0.00 99 1013.6
20260502110041 23 55 0.0 3.2 0.00 0.00 0.00 99 1013.6
20260502105035 23 13 0.0 3.2 0.00 0.00 0.00 99 1013.5
20260502104028 23 0.0 0.0 0.00 0.00 0.00 99 1013.4
20260502103022 23 0.0 0.0 0.00 0.00 0.00 99 1013.5
20260502102036 23 0.0 0.0 0.00 0.00 0.00 99 1013.6
20260502101029 23 32 0.0 1.6 0.00 0.00 0.00 99 1013.5
20260502091029 24 0.0 1.6 0.00 0.00 0.00 99 1013.3
20260502071031 22 0.0 0.0 0.00 0.00 0.00 99 1013.5
20260502070045 22 0.0 0.0 0.00 0.00 0.00 99 1013.4
20260502065018 22 0.0 0.0 0.00 0.00 0.00 99 1013.3
20260502064033 22 0.0 0.0 0.00 0.00 0.00 99 1013.5
20260502063026 22 0.0 0.0 0.00 0.00 0.00 99 1013.5
20260502062019 22 0.0 0.0 0.00 0.00 0.00 99 1013.6
20260502061053 22 0.0 0.0 0.00 0.00 0.00 99 1013.5
20260502060027 22 0.0 0.0 0.00 0.00 0.00 99 1013.6
20260502055021 22 0.0 0.0 0.00 0.00 0.00 99 1013.6
20260502054035 22 0.0 0.0 0.00 0.00 0.00 99 1013.6
20260502053029 22 0.0 0.0 0.00 0.00 0.00 99 1013.7
20260502052023 22 0.0 0.0 0.00 0.00 0.00 99 1013.7
20260502051036 22 0.0 0.0 0.00 0.00 0.00 99 1013.9
20260502050031 22 0.0 0.0 0.00 0.00 0.00 98 1014.1
20260502045025 22 0.0 0.0 0.00 0.00 0.00 98 1014.2
20260502044059 22 0.0 0.0 0.00 0.00 0.00 98 1014.3
20260502043054 22 0.0 0.0 0.00 0.00 0.00 97 1014.5
20260502042048 23 0.0 0.0 0.00 0.00 0.00 97 1014.3
20260502041022 23 0.0 0.0 0.00 0.00 0.00 97 1014.3
20260502040016 23 0.0 0.0 0.00 0.00 0.00 96 1014.4
20260502035030 23 0.0 0.0 0.00 0.00 0.00 96 1014.5